Flag Weather past 2 weeks in Durango, Colorado, U.S.A.

Now
33 °F

Clear.


Feels Like: 26 °F
Forecast: 23 / 48 °F
Wind: 8 mph from Southwest

Location: Durango-La Plata County Airport

Current Time: Nov 25, 2014 at 8:33:47 PM

Latest Report: Nov 25, 2014 at 7:53 PM


Visibility: 10 mi

Pressure: 30.42 "Hg

Humidity: 45%

Dew point: 14 °F

Location of DurangoLocation

Historic Weather in Durango — Graph

°F

Durango temperature yesterday

Maximum temperature yesterday: 35 °F (at 10:53 AM)
Minimum temperature yesterday: 18 °F (at 6:53 AM)
Average temperature yesterday: 26 °F

Past Weeks' High & Low Weather Summary

 TemperatureHumidityPressure
High56 °F (Nov 11, 2:53 PM)97% (Nov 14, 11:53 PM)30.56 "Hg (Nov 14, 11:53 PM)
Low10 °F (Nov 25, 4:53 AM)19% (Nov 16, 1:53 PM)29.71 "Hg (Nov 23, 3:53 AM)
Average33 °F60%30.11 "Hg
* Reported Nov 10 6:53 PM — Nov 25 6:53 PM, Durango, Weather by CustomWeather, © 2014

Note: Actual official high and low records may vary slightly from our data, if they occured in-between our weather recording intervals... More about our weather records

Advertising

Durango weather history for previous 24 hours

 ConditionsComfort  
Time TempWeatherWind HumidityBarometerVisibility
6:53 PM
Nov 25
34 °FClear.12 mph40%30.40 "Hg10 mi
5:53 PM36 °FClear.8 mph35%30.39 "Hg10 mi
4:53 PM39 °FSunny.13 mph30%30.35 "Hg10 mi
3:53 PM43 °FSunny.13 mph25%30.32 "Hg10 mi
2:53 PM46 °FSunny.10 mph24%30.32 "Hg10 mi
1:53 PM44 °FSunny.3 mph23%30.32 "Hg10 mi
12:53 PM42 °FPassing clouds.7 mph22%30.34 "Hg10 mi
11:53 AM38 °FSunny.10 mph29%30.40 "Hg10 mi
10:53 AM29 °FSunny.3 mph43%30.47 "Hg10 mi
9:53 AM25 °FSunny.3 mph50%30.50 "Hg10 mi
8:53 AM18 °FSunny.5 mph68%30.53 "Hg10 mi
7:53 AM13 °FPassing clouds.No wind81%30.56 "Hg10 mi
6:53 AM11 °FClear.6 mph77%30.55 "Hg10 mi
5:53 AM10 °FClear.6 mph84%30.55 "Hg10 mi
4:53 AM10 °FClear.3 mph84%30.55 "Hg10 mi
3:53 AM13 °FClear.3 mph77%30.50 "Hg10 mi
2:53 AM14 °FClear.7 mph73%30.48 "Hg10 mi
1:53 AM15 °FClear.No wind70%30.48 "Hg10 mi
12:53 AM19 °FClear.3 mph62%30.45 "Hg10 mi
11:53 PM
Nov 24
20 °FClear.3 mph62%30.46 "Hg10 mi
10:53 PM21 °FClear.No wind60%30.43 "Hg10 mi
9:53 PM25 °FClear.9 mph50%30.42 "Hg10 mi
8:53 PM26 °FClear.13 mph50%30.42 "Hg10 mi
Weather by CustomWeather, © 2014

See weather overviewHow to use our weather pages